TimeEDT,TemperatureF,Dew PointF,Humidity,Sea Level PressureIn,VisibilityMPH,Wind Direction,Wind SpeedMPH,Gust SpeedMPH,PrecipitationIn,Events,Conditions,WindDirDegrees,DateUTC
12:15 AM,37.6,32.0,80,30.21,10.0,Calm,Calm,-,N/A,,Scattered Clouds,0,2013-03-30 04:15:00
12:35 AM,37.6,32.0,80,30.21,10.0,Calm,Calm,-,N/A,,Scattered Clouds,0,2013-03-30 04:35:00
12:55 AM,36.5,32.0,84,30.21,10.0,Calm,Calm,-,N/A,,Scattered Clouds,0,2013-03-30 04:55:00
1:15 AM,36.5,31.8,83,30.21,10.0,Calm,Calm,-,N/A,,Mostly Cloudy,0,2013-03-30 05:15:00
1:55 AM,35.1,31.6,87,30.21,10.0,Calm,Calm,-,N/A,,Scattered Clouds,0,2013-03-30 05:55:00
2:15 AM,35.1,31.1,85,30.20,10.0,Calm,Calm,-,N/A,,Clear,0,2013-03-30 06:15:00
2:35 AM,35.1,31.5,87,30.20,10.0,Calm,Calm,-,N/A,,Scattered Clouds,0,2013-03-30 06:35:00
2:55 AM,35.1,31.6,87,30.20,10.0,Calm,Calm,-,N/A,,Scattered Clouds,0,2013-03-30 06:55:00
3:15 AM,32.5,30.0,90,30.19,10.0,Calm,Calm,-,N/A,,Scattered Clouds,0,2013-03-30 07:15:00
3:35 AM,32.5,30.0,90,30.19,10.0,Calm,Calm,-,N/A,,Clear,0,2013-03-30 07:35:00
3:55 AM,32.5,30.0,90,30.19,10.0,Calm,Calm,-,N/A,,Scattered Clouds,0,2013-03-30 07:55:00
4:15 AM,32.5,30.0,90,30.19,10.0,Calm,Calm,-,N/A,,Overcast,0,2013-03-30 08:15:00
4:35 AM,32.5,30.0,90,30.19,10.0,Calm,Calm,-,N/A,,Scattered Clouds,0,2013-03-30 08:35:00
4:55 AM,32.5,30.0,90,30.19,10.0,Calm,Calm,-,N/A,,Scattered Clouds,0,2013-03-30 08:55:00
5:15 AM,32.5,30.0,90,30.19,10.0,Calm,Calm,-,N/A,,Overcast,0,2013-03-30 09:15:00
5:35 AM,32.5,30.0,90,30.19,10.0,Calm,Calm,-,N/A,,Overcast,0,2013-03-30 09:35:00
5:55 AM,32.5,29.7,89,30.19,10.0,Calm,Calm,-,N/A,,Overcast,0,2013-03-30 09:55:00
6:15 AM,32.5,30.0,90,30.19,10.0,Calm,Calm,-,N/A,,Mostly Cloudy,0,2013-03-30 10:15:00
6:35 AM,32.5,30.0,90,30.21,10.0,Calm,Calm,-,N/A,,Scattered Clouds,0,2013-03-30 10:35:00
6:55 AM,32.7,30.2,90,30.21,10.0,Calm,Calm,-,N/A,,Mostly Cloudy,0,2013-03-30 10:55:00
7:15 AM,35.1,32.0,89,30.22,10.0,Calm,Calm,-,N/A,,Mostly Cloudy,0,2013-03-30 11:15:00
7:55 AM,35.1,32.0,89,30.22,10.0,Calm,Calm,-,N/A,,Mostly Cloudy,0,2013-03-30 11:55:00
8:15 AM,37.0,32.9,85,30.23,10.0,Calm,Calm,-,N/A,,Scattered Clouds,0,2013-03-30 12:15:00
8:35 AM,40.1,33.4,77,30.24,10.0,Calm,Calm,-,N/A,,Clear,0,2013-03-30 12:35:00
8:55 AM,44.6,36.1,72,30.24,10.0,Calm,Calm,-,N/A,,Scattered Clouds,0,2013-03-30 12:55:00
9:15 AM,45.1,34.0,65,30.24,10.0,North,3.5,-,N/A,,Scattered Clouds,350,2013-03-30 13:15:00
9:35 AM,48.6,35.6,61,30.23,10.0,Calm,Calm,-,N/A,,Scattered Clouds,0,2013-03-30 13:35:00
9:55 AM,50.0,34.3,55,30.23,10.0,North,4.6,-,N/A,,Clear,360,2013-03-30 13:55:00
10:15 AM,52.7,33.1,47,30.23,10.0,North,4.6,-,N/A,,Clear,360,2013-03-30 14:15:00
10:35 AM,55.0,31.5,41,30.23,10.0,North,5.8,-,N/A,,Clear,10,2013-03-30 14:35:00
10:55 AM,56.1,29.1,36,30.23,10.0,NNE,5.8,-,N/A,,Clear,20,2013-03-30 14:55:00
11:15 AM,57.0,27.1,32,30.23,10.0,Calm,Calm,-,N/A,,Clear,0,2013-03-30 15:15:00
11:35 AM,57.6,25.0,29,30.22,10.0,Calm,Calm,-,N/A,,Clear,0,2013-03-30 15:35:00
11:55 AM,57.9,21.4,24,30.22,10.0,North,9.2,-,N/A,,Clear,360,2013-03-30 15:55:00
12:15 PM,58.3,20.7,23,30.21,10.0,North,6.9,-,N/A,,Clear,10,2013-03-30 16:15:00
12:35 PM,58.5,21.0,24,30.20,10.0,NNE,6.9,-,N/A,,Clear,30,2013-03-30 16:35:00
12:55 PM,60.3,22.5,23,30.20,10.0,NW,3.5,9.2,N/A,,Clear,310,2013-03-30 16:55:00
1:15 PM,60.3,22.1,23,30.19,10.0,NNW,4.6,-,N/A,,Clear,330,2013-03-30 17:15:00
1:35 PM,62.6,24.6,24,30.18,10.0,West,8.1,-,N/A,,Clear,280,2013-03-30 17:35:00
1:55 PM,61.0,21.4,22,30.17,10.0,Calm,Calm,-,N/A,,Clear,0,2013-03-30 17:55:00
2:15 PM,62.1,22.1,22,30.16,10.0,NNW,3.5,-,N/A,,Clear,330,2013-03-30 18:15:00
2:35 PM,62.2,21.9,21,30.15,10.0,NNE,5.8,-,N/A,,Clear,20,2013-03-30 18:35:00
2:55 PM,63.5,23.4,22,30.15,10.0,NNW,3.5,-,N/A,,Clear,340,2013-03-30 18:55:00
3:15 PM,65.3,26.1,23,30.15,10.0,Calm,Calm,-,N/A,,Scattered Clouds,0,2013-03-30 19:15:00
3:35 PM,65.3,23.7,21,30.14,10.0,NW,3.5,-,N/A,,Scattered Clouds,310,2013-03-30 19:35:00
3:55 PM,65.3,23.0,20,30.13,10.0,WNW,5.8,-,N/A,,Clear,300,2013-03-30 19:55:00
4:15 PM,65.3,23.0,20,30.13,10.0,NNW,5.8,-,N/A,,Clear,330,2013-03-30 20:15:00
4:35 PM,65.3,25.3,22,30.12,10.0,Calm,Calm,-,N/A,,Clear,0,2013-03-30 20:35:00
4:55 PM,65.3,24.6,21,30.12,10.0,West,3.5,-,N/A,,Clear,280,2013-03-30 20:55:00
5:15 PM,65.3,24.1,21,30.11,10.0,Calm,Calm,-,N/A,,Clear,0,2013-03-30 21:15:00
5:35 PM,65.3,23.5,20,30.12,10.0,Calm,Calm,-,N/A,,Clear,0,2013-03-30 21:35:00
5:55 PM,65.3,24.3,21,30.12,10.0,Calm,Calm,-,N/A,,Clear,0,2013-03-30 21:55:00
6:15 PM,63.5,24.3,22,30.12,10.0,Calm,Calm,-,N/A,,Clear,0,2013-03-30 22:15:00
6:35 PM,62.6,23.7,23,30.12,10.0,Calm,Calm,-,N/A,,Clear,0,2013-03-30 22:35:00
6:55 PM,59.2,25.7,28,30.11,10.0,Calm,Calm,-,N/A,,Clear,0,2013-03-30 22:55:00
7:15 PM,57.6,28.0,32,30.12,10.0,Calm,Calm,-,N/A,,Clear,0,2013-03-30 23:15:00
7:55 PM,52.7,33.1,47,30.13,10.0,Calm,Calm,-,N/A,,Clear,0,2013-03-30 23:55:00
8:15 PM,51.1,33.3,51,30.14,10.0,Calm,Calm,-,N/A,,Clear,0,2013-03-31 00:15:00
8:35 PM,50.0,34.3,55,30.14,10.0,Calm,Calm,-,N/A,,Clear,0,2013-03-31 00:35:00
8:55 PM,48.6,35.8,61,30.15,10.0,East,9.2,-,N/A,,Clear,90,2013-03-31 00:55:00
9:15 PM,50.0,35.4,57,30.16,10.0,East,4.6,-,N/A,,Clear,100,2013-03-31 01:15:00
9:35 PM,50.0,37.2,62,30.16,10.0,ESE,4.6,-,N/A,,Clear,110,2013-03-31 01:35:00
9:55 PM,50.0,38.5,65,30.16,10.0,ESE,3.5,-,N/A,,Clear,120,2013-03-31 01:55:00
10:15 PM,50.0,39.6,67,30.16,10.0,ESE,3.5,-,N/A,,Scattered Clouds,110,2013-03-31 02:15:00
10:35 PM,49.1,39.9,71,30.16,10.0,Calm,Calm,-,N/A,,Clear,0,2013-03-31 02:35:00
10:55 PM,48.9,40.3,72,30.15,10.0,ESE,4.6,-,N/A,,Clear,110,2013-03-31 02:55:00
11:15 PM,47.5,39.2,73,30.15,10.0,ESE,3.5,-,N/A,,Clear,110,2013-03-31 03:15:00
11:35 PM,47.5,39.7,75,30.15,10.0,ESE,3.5,-,N/A,,Clear,120,2013-03-31 03:35:00
11:55 PM,45.1,39.0,79,30.15,10.0,SE,3.5,-,N/A,,Clear,140,2013-03-31 03:55:00